DateTime,F1_A11,F1_S11,BsB_S11,BsG_S11,BsR_S11,BbsB_S11,BbsG_S11,BbsR_S11,BaB_A11,BaG_A11,BaR_A11,T_S11,U_S11,P_S11,T1_A11
2016-03-31T00:00:00Z,0000380,21000600,,,,,,,,,,25.1,00.0,0650.4,34.5
2016-03-31T00:01:00Z,0000380,21000600,,,,,,,,,,25.0,00.0,0650.4,34.5
2016-03-31T00:02:00Z,0000380,21000600,,,,,,,,,,25.0,00.0,0650.4,34.5
2016-03-31T00:03:00Z,0000380,61000600,,,,,,,,,,25.1,00.0,0650.4,34.5
2016-03-31T00:04:00Z,0000380,41000600,0001.80,0001.23,0000.32,0000.21,-000.19,-000.06,0000.33,-000.01,0000.32,25.2,00.0,0651.1,34.5
2016-03-31T00:05:00Z,0000380,01000600,0000.34,0001.57,0000.28,0000.03,0000.10,-000.13,-000.09,0000.33,-000.32,25.2,00.0,0651.2,34.5
2016-03-31T00:06:00Z,0000380,01000600,0002.03,0001.19,0000.08,-000.60,0000.26,-000.06,0000.16,-000.06,0000.69,25.2,00.0,0651.2,34.5
2016-03-31T00:07:00Z,0000380,01000600,0000.57,0001.35,0000.68,0000.29,0000.10,0000.11,0000.24,0000.23,-000.18,25.2,00.0,0651.2,34.5
2016-03-31T00:08:00Z,0000380,01000600,0002.19,0001.33,0001.08,-000.06,-000.05,-000.34,0000.21,0000.03,0000.08,25.2,00.0,0651.2,34.5
2016-03-31T00:09:00Z,0000380,01000600,0001.44,0001.05,0000.43,-000.21,0000.05,-000.32,0000.11,0000.15,-000.38,25.2,00.0,0651.2,34.5
2016-03-31T00:10:00Z,0000380,01000600,-000.10,0001.00,0000.41,0000.40,-000.11,0000.37,-000.05,-000.06,0000.21,25.2,00.0,0651.1,34.5
2016-03-31T00:11:00Z,0000380,01000600,0002.62,0001.56,0000.51,0000.36,0000.19,0000.08,0000.13,0000.21,0000.38,25.1,00.0,0651.2,34.5
2016-03-31T00:12:00Z,0000380,01000600,0000.61,0000.74,0000.17,-000.21,0000.29,-000.49,0000.14,0000.20,-000.08,25.2,00.0,0651.2,34.5
2016-03-31T00:13:00Z,0000380,01000600,0000.78,0001.41,0000.40,0000.60,0000.02,-000.27,0000.05,0000.01,0000.35,25.1,00.0,0651.2,34.5
2016-03-31T00:14:00Z,0000380,01000600,0000.31,0001.88,0000.30,0000.87,-000.10,0000.21,0000.01,0000.13,-000.27,25.1,00.0,0651.2,34.5
2016-03-31T00:15:00Z,0000380,01000600,0001.65,0001.06,0000.26,0000.16,0000.06,-000.06,0000.27,0000.09,0000.15,25.1,00.0,0651.2,34.6
2016-03-31T00:16:00Z,0000380,01000600,0001.42,0000.96,0000.98,0000.57,0000.32,0000.29,-000.08,0000.04,0000.11,25.1,00.0,0651.3,34.6
2016-03-31T00:17:00Z,0000380,01000600,0000.17,0001.39,0000.65,0000.21,0000.18,0000.15,0000.28,0000.16,0000.30,25.1,00.0,0651.3,34.6
2016-03-31T00:18:00Z,0000380,01000600,0002.44,0000.78,0000.43,-000.63,0000.13,-000.19,-000.06,-000.24,-000.11,25.1,00.0,0651.3,34.6
2016-03-31T00:19:00Z,0000380,01000600,0002.10,0001.77,0000.23,0000.61,0000.37,0000.00,0000.08,0000.28,-000.23,25.1,00.0,0651.3,34.6
2016-03-31T00:20:00Z,0000380,01000600,0000.41,0000.32,0000.07,-000.76,0000.00,-000.15,0000.03,0000.01,0000.05,25.1,00.0,0651.4,34.6
2016-03-31T00:21:00Z,0000380,01000600,0001.79,0000.53,0000.44,-000.34,0000.02,-000.18,0000.27,0000.06,0000.00,25.1,00.0,0651.4,34.6
2016-03-31T00:22:00Z,0000380,01000600,0001.13,0001.31,-000.20,0000.42,0000.03,-000.24,-000.08,0000.06,0000.36,25.1,00.0,0651.4,34.6
2016-03-31T00:23:00Z,0000380,01000600,0001.49,0000.95,0000.38,0000.73,-000.31,-000.24,-000.00,0000.16,0000.00,25.1,00.0,0651.4,34.6
2016-03-31T00:24:00Z,0000380,01000600,0001.20,0001.23,0000.04,0000.58,0000.21,-000.05,0000.24,0000.01,0000.21,25.1,00.0,0651.4,34.6
2016-03-31T00:25:00Z,0000380,01000600,0001.12,0000.90,0000.50,0000.32,0000.48,-000.05,0000.09,0000.20,0000.02,25.1,00.0,0651.4,34.6
2016-03-31T00:26:00Z,0000380,01000600,0001.60,0000.73,0000.03,0000.02,-000.03,-000.08,0000.36,-000.11,0000.10,25.1,00.0,0651.4,34.6
2016-03-31T00:27:00Z,0000380,01000600,0000.43,0001.06,0000.23,0000.32,0000.13,-000.32,-000.08,0000.29,0000.35,25.1,00.0,0651.4,34.6
2016-03-31T00:28:00Z,0000380,01000600,0001.77,0000.92,0001.00,0001.02,0000.29,-000.06,0000.36,0000.24,0000.30,25.1,00.0,0651.4,34.6
2016-03-31T00:29:00Z,0000380,01000600,0001.12,0001.10,0000.22,0000.31,-000.18,0000.26,-000.05,0000.09,-000.18,25.2,00.0,0651.4,34.6
2016-03-31T00:30:00Z,0000380,01000600,0000.83,0000.77,0000.34,-000.32,0000.32,0000.57,0000.18,0000.06,0000.16,25.1,00.0,0651.4,34.6
2016-03-31T00:31:00Z,0000380,01000600,0000.23,0001.50,0000.96,0000.34,0000.21,0000.15,-000.08,0000.07,-000.44,25.1,00.0,0651.4,34.6
2016-03-31T00:32:00Z,0000380,01000600,0001.24,0000.84,0000.36,0000.06,0000.47,-000.06,0000.12,0000.11,0000.27,25.2,00.0,0651.4,34.6
2016-03-31T00:33:00Z,0000380,01000600,0001.23,0001.86,0000.18,-000.45,-000.18,-000.03,0000.15,0000.11,-000.29,25.2,00.0,0651.4,34.6
2016-03-31T00:34:00Z,0000380,01000600,0000.98,0001.15,0000.38,0000.16,-000.19,-000.27,0000.32,0000.06,0000.75,25.2,00.0,0651.4,34.6
2016-03-31T00:35:00Z,0000380,01000600,0001.57,0000.70,0000.32,0000.11,0000.16,0000.21,-000.06,0000.20,-000.05,25.2,00.0,0651.4,34.6
2016-03-31T00:36:00Z,0000380,01000600,0000.62,0001.24,0000.08,0000.34,0000.11,0000.29,0000.31,0000.01,0000.26,25.2,00.0,0651.4,34.6
2016-03-31T00:37:00Z,0000380,01000600,0001.49,0000.07,0000.42,0000.18,0000.00,0000.10,-000.08,0000.07,-000.10,25.2,00.0,0651.4,34.6
2016-03-31T00:38:00Z,0000380,01000600,0001.58,0001.08,-000.06,-000.42,-000.14,-000.58,0000.28,0000.07,-000.11,25.2,00.0,0651.4,34.6
2016-03-31T00:39:00Z,0000380,01000600,0000.20,0001.46,0000.62,0000.02,-000.19,0000.00,-000.06,0000.16,0000.32,25.2,00.0,0651.4,34.6
2016-03-31T00:40:00Z,0000380,01000600,0000.30,0001.50,0000.83,0000.11,0000.13,0000.00,0000.26,-000.14,-000.27,25.2,00.0,0651.4,34.6
2016-03-31T00:41:00Z,0000380,01000600,0001.71,0000.84,0000.27,0000.37,-000.08,-000.21,0000.10,0000.45,0000.71,25.2,00.0,0651.4,34.6
2016-03-31T00:42:00Z,0000380,01000600,-000.70,0000.98,0000.27,0000.00,0000.29,-000.42,0000.03,-000.14,-000.48,25.2,00.0,0651.4,34.6
2016-03-31T00:43:00Z,0000380,01000600,0002.07,0000.94,0000.32,0000.32,-000.48,-000.45,0000.03,0000.12,-000.26,25.2,00.0,0651.4,34.6
2016-03-31T00:44:00Z,0000380,01000600,0001.26,0000.96,0000.13,0000.24,0000.08,-000.27,0000.40,0000.12,0000.49,25.2,00.0,0651.4,34.6
2016-03-31T00:45:00Z,0000380,01000600,0002.47,0001.06,0000.50,-000.10,-000.03,-000.26,0000.14,0000.26,0000.22,25.2,00.0,0651.5,34.6
2016-03-31T00:46:00Z,0000380,01000600,0001.83,0000.79,-000.11,0000.36,-000.11,-000.45,-000.08,0000.08,-000.07,25.2,00.0,0651.4,34.6
2016-03-31T00:47:00Z,0000380,01000600,0000.90,0001.08,0000.63,0000.50,0000.42,-000.19,0000.20,-000.13,-000.01,25.2,00.0,0651.5,34.6
2016-03-31T00:48:00Z,0000380,01000600,0000.34,0001.35,0000.52,-000.47,-000.23,0000.32,0000.05,0000.28,0000.04,25.2,00.0,0651.5,34.6
2016-03-31T00:49:00Z,0000380,01000600,0001.17,0000.82,0000.30,0000.02,0000.53,0000.21,0000.13,-000.10,0000.22,25.2,00.0,0651.5,34.6
2016-03-31T00:50:00Z,0000380,01000600,0001.95,0001.54,0000.66,0000.24,0000.82,-000.32,0000.13,0000.23,-000.16,25.2,00.0,0651.5,34.6
2016-03-31T00:51:00Z,0000380,01000600,0000.66,0000.42,0000.47,0000.34,0000.35,-000.27,-000.06,0000.05,0000.35,25.2,00.0,0651.4,34.6
2016-03-31T00:52:00Z,0000380,01000600,0001.16,0001.20,0000.36,0000.08,-000.05,-000.37,0000.28,0000.22,0000.45,25.2,00.0,0651.4,34.6
2016-03-31T00:53:00Z,0000380,01000600,0001.35,0000.85,0000.15,0000.55,0000.00,-000.16,-000.06,0000.03,-000.50,25.2,00.0,0651.4,34.6
2016-03-31T00:54:00Z,0000380,01000600,0000.75,0001.41,0000.34,0000.11,0000.58,0000.05,0000.24,-000.25,0000.19,25.2,00.0,0651.4,34.6
2016-03-31T00:55:00Z,0000380,01000600,0002.10,0000.30,0000.30,0000.00,0000.72,-000.42,0000.11,0000.47,0000.34,25.2,00.0,0651.4,34.6
2016-03-31T00:56:00Z,0000380,01000600,0000.90,0001.18,0000.18,-000.23,-000.26,-000.10,0000.04,0000.17,-000.21,25.2,00.0,0651.4,34.6
2016-03-31T00:57:00Z,0000380,41000600,,,,,,,,,,,,0651.4,34.6
2016-03-31T00:58:00Z,0000380,61000600,,,,,,,,,,25.1,00.0,0650.6,34.6
2016-03-31T00:59:00Z,0000380,21000600,,,,,,,,,,25.0,00.0,0650.6,34.6
2016-03-31T01:00:00Z,0000380,21000600,,,,,,,,,,25.0,00.0,0650.6,34.6
2016-03-31T01:01:00Z,0000380,21000600,,,,,,,,,,25.0,00.0,0650.6,34.6
2016-03-31T01:02:00Z,0000380,21000600,,,,,,,,,,25.0,00.0,0650.6,34.6
2016-03-31T01:03:00Z,0000380,61000600,,,,,,,,,,25.1,00.0,0650.6,34.6
2016-03-31T01:04:00Z,0000380,41000600,0001.76,0001.44,0000.55,0000.02,-000.23,0000.13,0000.08,-000.06,-000.12,25.2,00.0,0651.3,34.6
2016-03-31T01:05:00Z,0000380,01000600,0001.76,0000.93,0000.71,0000.10,0000.16,-000.27,-000.03,0000.05,0000.21,25.2,00.0,0651.4,34.6
2016-03-31T01:06:00Z,0000380,01000600,0001.23,0001.67,0000.60,-000.11,0000.29,0000.10,0000.24,0000.07,0000.18,25.2,00.0,0651.4,34.6
2016-03-31T01:07:00Z,0000380,01000600,0000.73,0001.35,0000.65,0000.05,0000.10,-000.02,0000.02,0000.23,0000.00,25.3,00.0,0651.4,34.6
2016-03-31T01:08:00Z,0000380,01000600,0001.44,0000.69,0001.08,-000.18,-000.21,0000.65,0000.15,-000.01,-000.00,25.2,00.0,0651.4,34.6
2016-03-31T01:09:00Z,0000380,01000600,0001.70,0001.37,0000.57,-000.26,0000.16,0000.06,0000.11,0000.24,-000.06,25.3,00.0,0651.4,34.6
2016-03-31T01:10:00Z,0000380,01000600,0001.50,0000.91,0000.75,0000.27,0000.34,-000.05,0000.16,-000.04,0000.05,25.2,00.0,0651.4,34.6
2016-03-31T01:11:00Z,0000380,01000600,0002.31,0001.42,0000.35,0000.53,-000.03,-000.11,0000.14,0000.25,0000.39,25.2,00.0,0651.5,34.6
2016-03-31T01:12:00Z,0000380,01000600,0001.88,0000.93,0000.58,-000.26,0000.00,0000.06,0000.12,0000.11,-000.09,25.2,00.0,0651.5,34.6
2016-03-31T01:13:00Z,0000380,01000600,0000.55,0001.04,0000.52,-000.31,0000.21,0000.02,0000.26,0000.02,0000.26,25.2,00.0,0651.5,34.6
2016-03-31T01:14:00Z,0000380,01000600,0001.57,0000.73,0000.79,-000.10,0000.45,0000.29,0000.01,0000.29,-000.20,25.2,00.0,0651.5,34.6
2016-03-31T01:15:00Z,0000380,01000600,0001.32,0000.84,0000.65,-000.19,0000.02,-000.23,-000.03,0000.04,0000.41,25.2,00.0,0651.5,34.6
2016-03-31T01:16:00Z,0000380,01000600,0000.70,0001.45,0000.09,0000.02,-000.02,0000.03,0000.33,0000.21,-000.27,25.2,00.0,0651.5,34.6
2016-03-31T01:17:00Z,0000380,01000600,0002.26,0001.53,0000.56,-000.36,-000.45,0000.23,0000.01,-000.08,0000.21,25.2,00.0,0651.5,34.6
2016-03-31T01:18:00Z,0000380,01000600,0002.11,0001.03,0000.64,0000.90,0000.08,0000.06,-000.02,0000.02,0000.04,25.2,00.0,0651.5,34.6
2016-03-31T01:19:00Z,0000380,01000600,0001.75,0001.08,0000.57,0000.89,0000.10,0000.24,0000.24,0000.12,-000.13,25.2,00.0,0651.5,34.6
2016-03-31T01:20:00Z,0000380,01000600,0001.96,0000.62,0000.53,0000.26,0000.24,-000.05,-000.04,0000.22,0000.47,25.2,00.0,0651.5,34.6
2016-03-31T01:21:00Z,0000380,01000600,0001.55,0000.84,-000.20,0000.66,-000.19,0000.39,-000.07,-000.10,-000.24,25.2,00.0,0651.5,34.6
2016-03-31T01:22:00Z,0000380,01000600,0001.55,0000.73,0000.42,-000.06,0000.00,0000.16,0000.36,0000.10,0000.10,25.2,00.0,0651.5,34.6
2016-03-31T01:23:00Z,0000380,01000600,0001.02,0000.91,0000.32,-000.24,0000.39,-000.39,0000.08,0000.35,0000.25,25.2,00.0,0651.5,34.6
2016-03-31T01:24:00Z,0000380,01000600,0000.68,0001.09,0000.74,0000.26,0000.34,-000.19,0000.27,-000.07,0000.24,25.2,00.0,0651.5,34.6
2016-03-31T01:25:00Z,0000380,01000600,0000.99,0001.17,0000.74,0000.02,0000.24,-000.11,-000.03,0000.13,-000.38,25.2,00.0,0651.5,34.6
2016-03-31T01:26:00Z,0000380,01000600,0001.83,0001.13,0000.61,-000.57,0000.13,-000.06,0000.06,0000.09,0000.13,25.2,00.0,0651.5,34.6
2016-03-31T01:27:00Z,0000380,01000600,0001.93,0001.48,0000.39,0000.36,-000.29,-000.32,0000.22,0000.10,0000.28,25.2,00.0,0651.5,34.6
2016-03-31T01:28:00Z,0000380,01000600,0001.92,0001.31,0000.28,0000.19,-000.03,0000.13,-000.04,0000.09,0000.45,25.2,00.0,0651.5,34.6
2016-03-31T01:29:00Z,0000380,01000600,0000.45,0001.02,0000.85,-000.16,-000.26,0000.34,0000.24,0000.01,-000.43,25.2,00.0,0651.5,34.6
2016-03-31T01:30:00Z,0000380,01000600,0000.94,0000.53,0000.46,0000.15,0000.10,0000.26,0000.16,0000.16,-000.13,25.2,00.0,0651.5,34.6
2016-03-31T01:31:00Z,0000380,01000600,0001.67,0001.19,0000.42,0000.23,0000.18,0000.00,0000.32,0000.15,0000.41,25.2,00.0,0651.5,34.6
2016-03-31T01:32:00Z,0000380,01000600,0000.68,0001.35,0000.37,0000.39,-000.18,0000.10,-000.36,0000.02,-000.25,25.2,00.0,0651.5,34.6
2016-03-31T01:33:00Z,0000380,01000600,0002.42,0000.09,0000.40,0000.58,0000.26,-000.16,0000.49,-000.00,0000.46,25.2,00.0,0651.5,34.6
2016-03-31T01:34:00Z,0000380,01000600,0002.00,0001.91,0000.52,-000.18,-000.10,-000.02,0000.04,0000.25,0000.30,25.2,00.0,0651.5,34.6
2016-03-31T01:35:00Z,0000380,01000600,0001.63,0000.73,0000.63,0000.76,0000.10,0000.02,-000.03,0000.06,-000.92,25.2,00.0,0651.5,34.6
2016-03-31T01:36:00Z,0000380,01000600,0002.29,0001.32,0000.86,-000.16,0000.05,0000.39,0000.12,0000.13,0000.69,25.2,00.0,0651.5,34.6
2016-03-31T01:37:00Z,0000380,01000600,0000.57,0001.51,0001.42,0000.89,-000.31,0000.06,0000.21,0000.19,0000.15,25.2,00.0,0651.5,34.6
2016-03-31T01:38:00Z,0000380,01000600,-000.20,0001.09,0000.58,0000.90,0000.06,-000.05,0000.16,-000.00,-000.22,25.2,00.0,0651.5,34.6
2016-03-31T01:39:00Z,0000380,01000600,0001.98,0001.38,0000.19,0000.34,0000.26,0000.37,0000.18,0000.06,0000.09,25.1,00.0,0651.5,34.6
2016-03-31T01:40:00Z,0000380,01000600,0001.68,0001.29,0000.79,0000.21,0000.23,0000.37,0000.12,0000.18,0000.60,25.2,00.0,0651.5,34.6
2016-03-31T01:41:00Z,0000380,01000600,0001.82,0001.01,-000.03,0000.95,0000.02,0000.16,0000.09,0000.10,-000.43,25.1,00.0,0651.5,34.6
2016-03-31T01:42:00Z,0000380,01000600,0002.20,0001.12,0000.78,0000.26,0000.10,0000.00,0000.08,0000.06,0000.18,25.1,00.0,0651.5,34.6
2016-03-31T01:43:00Z,0000380,01000600,0001.61,0000.58,0000.36,-000.44,0000.11,-000.08,0000.04,0000.17,0000.12,25.1,00.0,0651.5,34.6
2016-03-31T01:44:00Z,0000380,01000600,0000.87,0000.99,0000.56,0000.76,0000.11,0000.29,0000.17,0000.09,0000.23,25.1,00.0,0651.5,34.6
2016-03-31T01:45:00Z,0000380,01000600,0000.76,0001.52,0000.39,0000.69,0000.27,0000.31,0000.01,0000.06,0000.02,25.1,00.0,0651.4,34.5
2016-03-31T01:46:00Z,0000380,01000600,0001.00,0000.35,0000.67,-000.79,0000.32,0000.24,0000.21,0000.15,-000.06,25.1,00.0,0651.5,34.5
2016-03-31T01:47:00Z,0000380,01000600,0002.70,0001.81,0000.50,0000.10,-000.05,0000.23,-000.07,0000.03,0000.35,25.1,00.0,0651.5,34.5
2016-03-31T01:48:00Z,0000380,01000600,0002.17,0001.22,0000.97,-000.47,-000.08,0000.00,0000.21,0000.04,-000.19,25.1,00.0,0651.5,34.5
2016-03-31T01:49:00Z,0000380,01000600,0001.07,0000.84,0000.30,0000.44,-000.37,-000.11,0000.04,-000.03,0000.21,25.1,00.0,0651.4,34.5
2016-03-31T01:50:00Z,0000380,01000600,0001.79,0001.22,0001.13,-000.06,0000.23,-000.29,0000.12,0000.23,0000.01,25.1,00.0,0651.4,34.5
2016-03-31T01:51:00Z,0000380,01000600,0000.68,0000.94,0000.56,0000.24,0000.32,0000.27,0000.24,0000.13,0000.15,25.1,00.0,0651.4,34.5
2016-03-31T01:52:00Z,0000380,01000600,0000.35,0000.70,0000.28,-000.32,0000.32,0000.02,0000.22,0000.06,0000.30,25.1,00.0,0651.5,34.5
2016-03-31T01:53:00Z,0000380,01000600,0002.41,0000.85,0000.78,0000.29,0000.02,0000.00,-000.20,0000.01,-000.06,25.1,00.0,0651.5,34.5
2016-03-31T01:54:00Z,0000380,01000600,0000.81,0000.80,0000.25,0000.06,-000.37,-000.10,0000.14,0000.12,-000.31,25.1,00.0,0651.5,34.5
2016-03-31T01:55:00Z,0000380,01000600,0001.80,0001.02,0000.51,0000.29,0000.23,0000.21,0000.14,0000.32,0000.35,25.1,00.0,0651.4,34.5
2016-03-31T01:56:00Z,0000380,01000600,0001.60,0000.23,0000.30,0000.48,-000.31,-000.32,0000.11,-000.18,0000.04,25.0,00.0,0651.4,34.5
2016-03-31T01:57:00Z,0000380,41000600,,,,,,,,,,,,0651.4,34.5
2016-03-31T01:58:00Z,0000380,61000600,,,,,,,,,,25.0,00.0,0650.6,34.5
2016-03-31T01:59:00Z,0000380,21000600,,,,,,,,,,25.0,00.0,0650.6,34.5
2016-03-31T02:00:00Z,0000380,21000600,,,,,,,,,,25.0,00.0,0650.6,34.6
2016-03-31T02:01:00Z,0000380,21000600,,,,,,,,,,25.0,00.0,0650.6,34.6
2016-03-31T02:02:00Z,0000380,21000600,,,,,,,,,,25.0,00.0,0650.6,34.6
2016-03-31T02:03:00Z,0000380,61000600,,,,,,,,,,25.0,00.0,0650.6,34.6
2016-03-31T02:04:00Z,0000380,41000600,0002.54,0001.86,0000.98,0000.34,-000.16,-000.18,0000.46,0000.15,0000.15,25.0,00.0,0651.3,34.6
2016-03-31T02:05:00Z,0000380,01000600,0002.06,0000.47,0000.88,-000.02,0000.10,0000.15,-000.21,0000.20,-000.05,25.0,00.0,0651.3,34.6
2016-03-31T02:06:00Z,0000380,01000600,0002.74,0001.66,0000.38,0000.23,-000.29,0000.06,0000.24,0000.14,0000.24,25.0,00.0,0651.3,34.6
2016-03-31T02:07:00Z,0000380,01000600,0000.10,0002.05,0000.60,-000.66,0000.14,0000.06,0000.11,-000.03,0000.23,25.0,00.0,0651.3,34.6
2016-03-31T02:08:00Z,0000380,01000600,0001.27,0001.05,0000.10,-000.61,-000.27,-000.26,0000.06,-000.02,-000.13,25.0,00.0,0651.4,34.6
2016-03-31T02:09:00Z,0000380,01000600,0001.77,0000.72,0000.22,0000.06,0000.18,0000.32,0000.05,0000.19,-000.05,25.0,00.0,0651.4,34.6
2016-03-31T02:10:00Z,0000380,01000600,0001.73,0001.43,0000.45,0000.68,-000.34,0000.23,0000.05,0000.04,-000.16,25.0,00.0,0651.4,34.6
2016-03-31T02:11:00Z,0000380,01000600,0002.61,0000.62,0000.95,0000.29,0000.66,0000.02,0000.17,0000.18,0000.31,25.0,00.0,0651.4,34.6
2016-03-31T02:12:00Z,0000380,01000600,0002.55,0001.39,0000.79,0000.19,-000.13,-000.31,0000.09,-000.03,0000.18,25.0,00.0,0651.4,34.6
2016-03-31T02:13:00Z,0000380,01000600,0001.70,0000.59,0000.79,0000.34,-000.40,0000.15,0000.08,0000.28,0000.15,25.0,00.0,0651.4,34.6
2016-03-31T02:14:00Z,0000380,01000600,0001.49,0000.59,0000.89,0000.32,0000.35,-000.06,0000.37,0000.17,0000.08,25.0,00.0,0651.5,34.6
2016-03-31T02:15:00Z,0000380,01000600,0000.91,0001.50,0000.76,0000.87,0000.43,-000.11,0000.11,0000.11,0000.36,25.0,00.0,0651.4,34.5
2016-03-31T02:16:00Z,0000380,01000600,0000.79,0001.04,0000.80,-000.23,0000.24,0000.47,-000.11,-000.03,-000.41,25.0,00.0,0651.4,34.5
2016-03-31T02:17:00Z,0000380,01000600,0001.78,0001.36,0000.98,-000.45,-000.13,-000.19,0000.09,0000.20,0000.19,25.0,00.0,0651.4,34.5
2016-03-31T02:18:00Z,0000380,01000600,0002.28,0001.59,0000.68,-000.16,0000.14,0000.13,0000.29,-000.11,-000.12,25.0,00.0,0651.4,34.5
2016-03-31T02:19:00Z,0000380,01000600,0001.91,0000.94,0000.57,0000.05,-000.14,-000.24,0000.07,0000.24,0000.78,25.0,00.0,0651.4,34.5
2016-03-31T02:20:00Z,0000380,01000600,0001.25,0001.54,0001.17,0000.47,-000.27,0000.11,0000.30,-000.04,-000.54,25.0,00.0,0651.4,34.5
2016-03-31T02:21:00Z,0000380,01000600,0000.97,0001.41,0000.60,0000.08,-000.19,-000.58,-000.21,0000.10,-000.15,25.0,00.0,0651.4,34.5
2016-03-31T02:22:00Z,0000380,01000600,0001.79,0001.85,0000.79,0000.32,0000.27,-000.21,0000.20,0000.08,0000.48,25.0,00.0,0651.4,34.5
2016-03-31T02:23:00Z,0000380,01000600,0001.96,0000.81,0000.94,0000.10,0000.10,-000.27,0000.00,0000.19,-000.04,25.0,00.0,0651.4,34.5
2016-03-31T02:24:00Z,0000380,01000600,0001.68,0000.98,-000.14,0000.26,0000.42,-000.13,0000.20,0000.12,-000.05,25.0,00.0,0651.4,34.5
2016-03-31T02:25:00Z,0000380,01000600,0000.80,0001.08,0000.77,0000.34,0000.14,-000.39,0000.22,0000.19,0000.31,25.0,00.0,0651.4,34.5
2016-03-31T02:26:00Z,0000380,01000600,0000.88,0001.20,0001.46,-000.69,-000.11,0000.44,0000.20,0000.02,0000.04,25.0,00.0,0651.4,34.5
2016-03-31T02:27:00Z,0000380,01000600,0001.85,0001.50,0000.35,-000.65,-000.55,-000.61,-000.11,-000.00,0000.14,25.0,00.0,0651.4,34.5
2016-03-31T02:28:00Z,0000380,01000600,0001.82,0001.53,0000.87,0000.40,0000.06,0000.15,0000.16,0000.26,0000.05,25.0,00.0,0651.4,34.5
2016-03-31T02:29:00Z,0000380,01000600,0002.43,0001.10,0000.62,0000.34,-000.19,-000.45,0000.09,0000.00,-000.02,24.9,00.0,0651.4,34.5
2016-03-31T02:30:00Z,0000380,01000600,0003.07,0000.65,0000.52,-000.23,-000.40,-000.16,0000.18,0000.03,-000.27,24.9,00.0,0651.4,34.6
2016-03-31T02:31:00Z,0000380,01000600,0001.20,0000.82,0000.74,-000.26,0000.26,0000.29,0000.24,0000.00,0000.29,24.9,00.0,0651.4,34.6
2016-03-31T02:32:00Z,0000380,01000600,0001.29,0001.66,0000.76,-000.45,0000.06,-000.18,-000.08,0000.14,0000.02,24.9,00.0,0651.4,34.6
2016-03-31T02:33:00Z,0000380,01000600,0000.90,0000.29,0000.51,0000.45,-000.13,-000.11,0000.03,0000.27,0000.14,24.9,00.0,0651.5,34.6
2016-03-31T02:34:00Z,0000380,01000600,0001.76,0001.29,0000.72,0000.11,0000.02,0000.11,0000.44,0000.22,0000.18,24.9,00.0,0651.5,34.6
2016-03-31T02:35:00Z,0000380,01000600,0001.38,0000.33,0000.84,0000.24,-000.05,0000.00,-000.13,-000.16,0000.03,24.9,00.0,0651.5,34.6
2016-03-31T02:36:00Z,0000380,01000600,0001.29,0000.92,0000.42,-000.21,0000.45,0000.06,0000.08,0000.10,0000.06,24.9,00.0,0651.5,34.6
2016-03-31T02:37:00Z,0000380,01000600,0001.27,0001.28,0000.80,-000.32,-000.03,-000.11,0000.21,0000.23,0000.13,24.9,00.0,0651.4,34.6
2016-03-31T02:38:00Z,0000380,01000600,0001.97,0000.86,0000.36,0000.55,-000.40,-000.18,0000.16,0000.05,0000.35,24.9,00.0,0651.4,34.6
2016-03-31T02:39:00Z,0000380,01000600,0001.24,0000.93,0001.50,-000.40,0000.11,-000.05,0000.17,-000.10,-000.27,24.9,00.0,0651.4,34.6
2016-03-31T02:40:00Z,0000380,01000600,0002.18,0000.55,0000.78,-000.13,0000.05,-000.10,0000.03,0000.21,0000.20,24.9,00.0,0651.4,34.6
2016-03-31T02:41:00Z,0000380,01000600,0001.72,0001.35,0000.91,0000.21,-000.10,0000.05,0000.27,0000.18,-000.02,24.9,00.0,0651.4,34.6
2016-03-31T02:42:00Z,0000380,01000600,0000.88,0001.55,0001.01,-000.26,0000.76,0000.06,0000.23,0000.28,0000.40,24.9,00.0,0651.4,34.6
2016-03-31T02:43:00Z,0000380,01000600,0000.96,0001.60,0000.80,0000.23,0000.51,0000.11,-000.12,0000.01,0000.00,24.9,00.0,0651.4,34.6
2016-03-31T02:44:00Z,0000380,01000600,0002.14,0001.07,0000.69,-000.16,0000.14,0000.24,0000.17,0000.03,0000.14,24.9,00.0,0651.4,34.6
2016-03-31T02:45:00Z,0000380,01000600,0001.22,0001.88,0000.76,-000.02,-000.10,-000.06,0000.01,0000.21,-000.03,24.9,00.0,0651.4,34.6
2016-03-31T02:46:00Z,0000380,01000600,0001.30,0001.28,0000.62,-000.27,0000.22,-000.13,0000.28,-000.13,0000.13,24.8,00.0,0651.4,34.6
2016-03-31T02:47:00Z,0000380,01000600,0001.91,0001.66,0000.52,0000.11,-000.14,0000.06,-000.17,0000.25,-000.02,24.8,00.0,0651.4,34.6
2016-03-31T02:48:00Z,0000380,01000600,0000.28,0000.49,0001.01,-000.02,0000.21,0000.05,0000.50,0000.07,0000.07,24.8,00.0,0651.4,34.6
2016-03-31T02:49:00Z,0000380,01000600,0001.56,0001.39,0000.64,-000.10,-000.27,0000.08,-000.00,0000.19,0000.06,24.8,00.0,0651.3,34.6
2016-03-31T02:50:00Z,0000380,01000600,0001.08,0000.52,0000.45,0000.21,0000.39,0000.34,0000.17,0000.07,0000.09,24.8,00.0,0651.3,34.6
2016-03-31T02:51:00Z,0000380,01000600,0002.51,0001.27,0000.70,0000.69,-000.45,-000.19,0000.10,0000.20,0000.51,24.8,00.0,0651.3,34.6
2016-03-31T02:52:00Z,0000380,01000600,0001.29,0001.38,0000.95,0000.02,-000.08,-000.18,0000.14,0000.14,-000.21,24.8,00.0,0651.3,34.6
2016-03-31T02:53:00Z,0000380,01000600,0000.24,0000.87,0000.25,0000.15,0000.00,-000.08,0000.20,0000.16,-000.26,24.8,00.0,0651.3,34.6
2016-03-31T02:54:00Z,0000380,01000600,0000.08,0001.10,0000.90,0000.37,0000.16,-000.36,0000.01,0000.12,0000.10,24.8,00.0,0651.3,34.6
2016-03-31T02:55:00Z,0000380,01000600,0002.26,0000.56,0000.70,0000.34,-000.14,-000.10,0000.14,-000.09,0000.29,24.8,00.0,0651.3,34.6
2016-03-31T02:56:00Z,0000380,01000600,0001.54,0001.68,0000.28,0000.52,0000.27,-000.03,-000.06,0000.03,0000.27,24.8,00.0,0651.2,34.6
2016-03-31T02:57:00Z,0000380,41000600,,,,,,,,,,,,0651.2,34.6
2016-03-31T02:58:00Z,0000380,61000600,,,,,,,,,,24.7,00.0,0650.4,34.6
2016-03-31T02:59:00Z,0000380,21000600,,,,,,,,,,24.7,00.0,0650.4,34.6
2016-03-31T03:00:00Z,0000380,21000600,,,,,,,,,,24.7,00.0,0650.4,34.5
2016-03-31T03:01:00Z,0000380,21000600,,,,,,,,,,24.7,00.0,0650.4,34.5
2016-03-31T03:02:00Z,0000380,21000600,,,,,,,,,,24.7,00.0,0650.4,34.5
2016-03-31T03:03:00Z,0000380,61000600,,,,,,,,,,24.7,00.0,0650.4,34.5
2016-03-31T03:04:00Z,0000380,41000600,0001.24,0001.20,0001.13,0001.26,0000.13,0000.63,0000.15,0000.26,0000.46,24.7,00.0,0651.1,34.5
2016-03-31T03:05:00Z,0000380,01000600,0001.26,0000.95,0000.89,0000.26,0000.05,0000.11,0000.15,0000.15,0000.29,24.7,00.0,0651.2,34.5
2016-03-31T03:06:00Z,0000380,01000600,0001.24,0001.39,0000.91,-000.34,0000.21,0000.05,0000.28,-000.14,-000.43,24.6,00.0,0651.2,34.5
2016-03-31T03:07:00Z,0000380,01000600,0000.56,0000.25,0000.30,0000.63,0000.50,0000.08,-000.08,0000.02,-000.02,24.6,00.0,0651.2,34.5
2016-03-31T03:08:00Z,0000380,01000600,0001.35,0000.06,0000.98,0001.65,-000.08,0000.08,0000.02,0000.17,0000.24,24.6,00.0,0651.2,34.5
2016-03-31T03:09:00Z,0000380,01000600,0001.26,-000.04,0000.90,0000.27,-000.35,0000.00,0000.21,0000.13,-000.03,24.6,00.0,0651.2,34.5
2016-03-31T03:10:00Z,0000380,01000600,0001.65,0000.43,0001.05,0000.35,-000.11,0000.13,0000.11,-000.02,0000.28,24.5,00.0,0651.2,34.5
2016-03-31T03:11:00Z,0000380,01000600,0001.13,0000.51,0001.05,0000.61,0000.08,0000.15,0000.12,0000.21,-000.08,24.5,00.0,0651.2,34.5
2016-03-31T03:12:00Z,0000380,01000600,0001.35,0000.07,0000.59,0000.53,0000.16,0000.37,0000.12,0000.25,-000.13,24.5,00.0,0651.2,34.5